Home   Weather   Reims   Past weeks

Flag for France Past Weather in Reims, Champagne-Ardenne, France — Yesterday and Last 2 Weeks

48 °F


Feels Like: 44 °F
Forecast: 49 / 58 °F
Wind: 9 mph from Northeast

Location: Chalons-Vatry

Current Time: Oct 24, 2016 at 12:07:25 AM

Latest Report: Oct 23, 2016 at 11:30 PM

Visibility: 3 mi

Pressure: 29.77 "Hg

Humidity: 100%

Dew Point: 48 °F

Location of ReimsLocation

Past Weather in Reims — Graph


Reims Temperature Yesterday

Maximum temperature yesterday: 54 °F (at 2:00 PM)
Minimum temperature yesterday: 32 °F (at 4:30 AM)
Average temperature yesterday: 43 °F

High & Low Weather Summary for the Past Weeks

High68 °F (Oct 16, 3:00 PM)100% (Oct 9, 7:00 AM)30.30 "Hg (Oct 9, 7:00 AM)
Low32 °F (Oct 23, 4:30 AM)47% (Oct 10, 4:30 PM)29.59 "Hg (Oct 14, 4:30 PM)
Average48 °F86%30.03 "Hg
* Reported Oct 8 11:00 PM — Oct 23 11:00 PM, Reims, Weather by CustomWeather, © 2016

Note: Actual official high and low records may vary slightly from our data, if they occured in-between our weather recording intervals... More about our weather records


Reims Weather History for the Previous 24 Hours

Scroll right to see more
Time TempWeatherWind HumidityBarometerVisibility
11:00 PM
Sun, Oct 23
50 °FDrizzle. Fog.6 mph94%29.77 "Hg3 mi
10:30 PM48 °FMostly cloudy.7 mph100%29.77 "Hg4 mi
10:00 PM48 °FMostly cloudy.9 mph100%29.77 "Hg4 mi
9:30 PM48 °FPartly cloudy.9 mph100%29.77 "Hg4 mi
9:00 PM48 °FLight rain. Fog.13 mph100%29.77 "Hg3 mi
8:30 PM48 °FLight rain. Fog.12 mph100%29.77 "Hg3 mi
8:00 PM48 °FLight rain. Passing clouds.9 mph100%29.77 "Hg4 mi
7:30 PM48 °FLight rain. Mostly cloudy.12 mph100%29.77 "Hg4 mi
7:00 PM48 °FLight rain. Fog.10 mph100%29.77 "Hg3 mi
6:30 PM48 °FRain. Fog.8 mph94%29.77 "Hg3 mi
6:00 PM50 °FRain. Partly sunny.10 mph88%29.77 "Hg5 mi
5:30 PM50 °FRain. Fog.8 mph88%29.77 "Hg3 mi
5:00 PM52 °FLight rain. Cloudy.10 mph77%29.77 "HgN/A
4:30 PM54 °FSunny.13 mph72%29.77 "Hg10 mi
4:00 PM54 °FSunny.12 mph72%29.74 "Hg10 mi
3:30 PM54 °FSunny.13 mph72%29.77 "Hg10 mi
3:00 PM54 °FSunny.13 mph72%29.77 "Hg10 mi
2:30 PM54 °FSunny.12 mph72%29.77 "Hg10 mi
2:00 PM54 °FSunny.12 mph72%29.77 "Hg10 mi
1:30 PM52 °FSunny.12 mph72%29.80 "Hg10 mi
1:00 PM52 °FSunny.12 mph72%29.80 "Hg10 mi
12:30 PM50 °FSunny.12 mph76%29.80 "Hg10 mi
12:00 PM48 °FSunny.12 mph82%29.80 "Hg10 mi
11:30 AM45 °FSunny.10 mph87%29.80 "Hg10 mi
11:00 AM43 °FClear.13 mph93%29.80 "Hg4 mi
10:30 AM39 °FPassing clouds.10 mph100%29.83 "Hg4 mi
10:00 AM37 °FFog.8 mph100%29.83 "Hg1 mi
9:30 AM36 °FFog.8 mph100%29.83 "Hg0 mi
9:00 AM34 °FFog.10 mph100%29.83 "Hg0 mi
8:30 AM34 °FFog.7 mph100%29.83 "Hg0 mi
8:00 AM34 °FFog.9 mph100%29.83 "Hg0 mi
7:30 AM34 °FFog.9 mph100%29.83 "Hg1 mi
7:00 AM32 °FFog.9 mph100%29.83 "Hg0 mi
6:30 AM32 °FFog.8 mph100%29.83 "Hg0 mi
6:00 AM32 °FFog.9 mph100%29.83 "Hg0 mi
5:30 AM34 °FFog.9 mph100%29.86 "Hg0 mi
5:00 AM34 °FFog.7 mph100%29.86 "Hg1 mi
4:30 AM32 °FFog.7 mph100%29.86 "Hg1 mi
4:00 AM34 °FFog.7 mph100%29.86 "Hg0 mi
3:30 AM34 °FFog.6 mph100%29.89 "Hg0 mi
3:00 AM34 °FFog.5 mph100%29.89 "Hg0 mi
2:30 AM34 °FFog.6 mph100%29.89 "Hg0 mi
2:00 AM34 °FFog.5 mph100%29.89 "Hg0 mi
1:30 AM36 °FFog.7 mph93%29.89 "Hg0 mi
1:00 AM36 °FFog.7 mph100%29.92 "Hg1 mi
12:30 AM36 °FFog.7 mph100%29.92 "Hg0 mi
12:00 AM37 °FFog.7 mph100%29.92 "Hg1 mi
Weather by CustomWeather, © 2016

See weather overviewHow to use our weather pages